[[{"header":{"parameterUnit":"m.s-1","parameterCategory":2,"la1":30.2991,"la2":30.254,"lo1":-89.0895,"lo2":-89.0444,"dy":0.0017,"dx":0.0017,"nx":28,"ny":28,"refTime":"2025-01-29T09:00:00:Z","depth":"0","parameterNumber":2,"parameterNumberName":"U-component_of_CURRENTS"},"data":[0,0,0,0,0,0,0,0,0,0,0,0,0,0,0,0,0,0,0,0,0,0,0,0,0,0,0,0,0,0,0,0,0,0,0,0,0,0,0,0,0,0,0,0,0,0,0,0,0,0,0,0,0,0,0,0,0,0,0.2539,0.254,0,0.2603,0.2603,0.2604,0.2611,0.2611,0.261,0.261,0.2639,0.264,0.2641,0,0,0,0,0,0,0,0,0,0,0,0,0,0.2445,0.2446,0.2539,0.254,0.2541,0.2603,0.2603,0.2604,0.2611,0.2611,0.261,0.2609,0.2639,0.264,0.2642,0,0,0,0,0,0,0,0,0,0,0,0,0,0.2493,0.2447,0.2539,0.2553,0.2555,0.2603,0.2603,0.2604,0.2611,0.2611,0.261,0.2609,0.2638,0.264,0.2642,0.2669,0,0,0.2648,0.2648,0,0,0,0,0,0,0,0,0.2491,0.2497,0.255,0.2552,0.2554,0.2599,0.2581,0.2625,0.2611,0.2588,0.261,0.2609,0.2624,0.2627,0.2639,0.267,0.2672,0.2648,0.2649,0.265,0.265,0,0,0,0,0,0,0,0.2487,0.2494,0.2563,0.2551,0.2554,0.2563,0.2569,0.259,0.2608,0.259,0.2591,0.2601,0.2625,0.2637,0.264,0.2672,0.2648,0.2649,0.2651,0.2651,0.2748,0.2749,0,0,0,0,0,0,0.2482,0.2491,0.2561,0.2565,0.2521,0.2566,0.2572,0.2585,0.2609,0.2612,0.2602,0.2601,0.2635,0.2638,0.2641,0.2687,0.265,0.2651,0.2653,0.2747,0.2748,0.275,0,0,0,0,0,0,0.248,0.2488,0.2558,0.253,0.254,0.2568,0.2582,0.2586,0.26,0.2618,0.262,0.2611,0.2634,0.2638,0.2666,0.2688,0.2652,0.2654,0.2745,0.2747,0.2749,0.2772,0,0,0,0,0,0,0.2477,0.2487,0.2494,0.253,0.2541,0.259,0.2583,0.2588,0.2608,0.2607,0.2627,0.2629,0.2634,0.2663,0.2668,0.269,0.2656,0.2743,0.2746,0.2748,0.2769,0.2775,0.2779,0,0,0,0,0,0.2473,0.2486,0.2494,0.2502,0.255,0.2591,0.2598,0.2614,0.2609,0.2621,0.2635,0.2628,0.2684,0.2666,0.2671,0.2694,0.2742,0.2745,0.2748,0.2767,0.2774,0.2779,0,0,0,0,0,0,0.2446,0.249,0.2498,0.2522,0.2556,0.2593,0.2607,0.2617,0.2639,0.2637,0.2645,0.2649,0.2683,0.2689,0.2669,0.2732,0.2713,0.2717,0.2726,0.2732,0.2736,0.2726,0.2657,0,0,0,0,0,0.2445,0.2466,0.2509,0.2527,0.2546,0.2577,0.2594,0.2608,0.2633,0.2642,0.2657,0.2676,0.2703,0.2715,0.2737,0.277,0.2804,0.279,0.2795,0.2799,0.2796,0.2839,0.2847,0.276,0.276,0.276,0,0,0.2436,0.2465,0.2475,0.2523,0.2549,0.2584,0.2585,0.2617,0.2643,0.2642,0.2677,0.2694,0.2716,0.2754,0.277,0.2759,0.2858,0.2803,0.2806,0.2801,0.2843,0.2852,0.2859,0.2763,0.2762,0.2762,0,0,0.2437,0.2461,0.2482,0.2514,0.256,0.2587,0.2597,0.264,0.2656,0.2695,0.2702,0.273,0.2769,0.2791,0.2806,0.2852,0.2881,0.2863,0.2878,0.2921,0.2928,0.2934,0.3056,0.3073,0.2865,0.2865,0.2865,0,0.2424,0.2461,0.2493,0.2527,0.2555,0.2589,0.2621,0.265,0.2694,0.2714,0.2707,0.2774,0.2788,0.2837,0.2852,0.2862,0.2914,0.2851,0.2926,0.2933,0.2939,0.3061,0.3079,0.2866,0.2866,0.2866,0.2866,0,0.2447,0.2478,0.2495,0.255,0.2584,0.2618,0.2666,0.2696,0.2718,0.2748,0.2798,0.282,0.2859,0.2872,0.2874,0.2929,0.2967,0.2926,0.2907,0.2949,0.3076,0.3095,0.2868,0.2868,0.2867,0.2867,0,0,0.2417,0.2495,0.2501,0.253,0.26,0.263,0.2679,0.2738,0.2772,0.2808,0.2858,0.2894,0.2905,0.2923,0.2935,0.2963,0.3071,0.2961,0.2963,0.3076,0.3232,0.3339,0.3371,0.3035,0.3037,0.3039,0.3328,0,0.2427,0.2483,0.2525,0.258,0.2616,0.2666,0.2713,0.2766,0.281,0.2868,0.2898,0.2949,0.2928,0.2952,0.2978,0.3047,0.311,0.3001,0.3178,0.3185,0.3268,0.339,0.3333,0.359,0.3346,0.3349,0.3351,0,0.2438,0.2477,0.2529,0.2603,0.2623,0.2661,0.2739,0.2787,0.2872,0.2908,0.2957,0.2991,0.3069,0.3022,0.3171,0.3104,0.3172,0.3216,0.3227,0.3322,0.3325,0.3496,0.3633,0.3515,0.338,0.3377,0.3375,0,0.2404,0.248,0.2519,0.2545,0.2634,0.2663,0.2712,0.2795,0.286,0.2938,0.3007,0.3072,0.3151,0.3206,0.3326,0.325,0.3506,0.3413,0.3587,0.3599,0.3583,0.359,0.3612,0.351,0.351,0.3509,0.3508,0,0.2404,0.2432,0.2504,0.2527,0.2575,0.2645,0.2715,0.2765,0.2882,0.2961,0.3028,0.3125,0.3191,0.3345,0.3394,0.3609,0.3581,0.3639,0.368,0.36,0.3605,0.3525,0.3471,0.352,0.3517,0.3515,0.3513,0,0.2363,0.2412,0.2455,0.2536,0.2561,0.2594,0.2723,0.2784,0.2897,0.3008,0.3046,0.3225,0.344,0.357,0.3725,0.3752,0.3822,0.3965,0.3921,0.3951,0.3957,0.3909,0.3886,0.3751,0.4199,0.4203,0.4207,0,0.2351,0.2367,0.2439,0.2479,0.2517,0.2587,0.2645,0.276,0.2838,0.3064,0.3123,0.3392,0.3594,0.3959,0.4062,0.4272,0.4045,0.4283,0.4096,0.4002,0.3978,0.3754,0.3619,0.412,0.4122,0.4125,0.4126,0,0.2345,0.2363,0.2419,0.2478,0.2533,0.2586,0.2676,0.2749,0.2889,0.3043,0.3288,0.3493,0.3868,0.4093,0.4373,0.4439,0.4095,0.4337,0.4211,0.3922,0.3705,0.3579,0.3937,0.4146,0.4144,0.4142,0.4141,0.4141,0.2372,0.2393,0.2478,0.2531,0.2571,0.2619,0.267,0.2778,0.2943,0.3155,0.3349,0.3663,0.3978,0.441,0.4435,0.4445,0.4321,0.4311,0.4279,0.4071,0.3863,0.4327,0.4581,0.4581,0.4582,0.4582,0.4583,0,0.247,0.2506,0.2542,0.2613,0.2642,0.2652,0.2728,0.2786,0.2955,0.3176,0.3423,0.3845,0.4138,0.4318,0.448,0.4364,0.4072,0.4247,0.3854,0.3729,0.4147,0.4062,0.4246,0.4246,0.4246,0.4246,0.4246,0.4247,0.2561,0.2638,0.2636,0.2704,0.2723,0.2748,0.2787,0.2846,0.2994,0.3263,0.3498,0.371,0.4074,0.4395,0.4352,0.4245,0.3816,0.378,0.3643,0.3901,0.3898,0.3895,0.3795,0.3921,0.3921,0.3034,0.3028,0.3024]},{"header":{"parameterUnit":"m.s-1","parameterCategory":2,"la1":30.2991,"la2":30.254,"lo1":-89.0895,"lo2":-89.0444,"dy":0.0017,"dx":0.0017,"nx":28,"ny":28,"refTime":"2025-01-29T09:00:00:Z","depth":"0","parameterNumber":3,"parameterNumberName":"V-component_of_CURRENTS"},"data":[0,0,0,0,0,0,0,0,0,0,0,0,0,0,0,0,0,0,0,0,0,0,0,0,0,0,0,0,0,0,0,0,0,0,0,0,0,0,0,0,0,0,0,0,0,0,0,0,0,0,0,0,0,0,0,0,0,0,-0.0637,-0.0638,0,-0.0699,-0.07,-0.0701,-0.0748,-0.0749,-0.0749,-0.0749,-0.091,-0.0914,-0.0918,0,0,0,0,0,0,0,0,0,0,0,0,0,-0.0621,-0.0621,-0.0637,-0.0638,-0.0639,-0.0699,-0.07,-0.0701,-0.0748,-0.0749,-0.0749,-0.0749,-0.0909,-0.0913,-0.0918,0,0,0,0,0,0,0,0,0,0,0,0,0,-0.0652,-0.0621,-0.0637,-0.0668,-0.0671,-0.0699,-0.07,-0.0701,-0.0748,-0.0749,-0.0749,-0.0749,-0.0907,-0.0913,-0.0919,-0.0948,0,0,-0.0937,-0.094,0,0,0,0,0,0,0,0,-0.065,-0.0652,-0.0663,-0.0666,-0.067,-0.0715,-0.0753,-0.0788,-0.0748,-0.0721,-0.0749,-0.075,-0.0852,-0.0863,-0.0875,-0.0955,-0.0962,-0.0938,-0.0941,-0.0944,-0.0946,0,0,0,0,0,0,0,-0.0648,-0.065,-0.0664,-0.0663,-0.0668,-0.07,-0.0704,-0.076,-0.0787,-0.0723,-0.0726,-0.073,-0.0855,-0.0869,-0.0879,-0.0965,-0.0938,-0.0943,-0.0947,-0.0949,-0.1095,-0.1095,0,0,0,0,0,0,-0.0632,-0.0648,-0.0662,-0.0665,-0.0658,-0.0699,-0.0704,-0.0701,-0.0784,-0.0796,-0.073,-0.0732,-0.0858,-0.0872,-0.0885,-0.0945,-0.0944,-0.095,-0.0953,-0.1095,-0.1095,-0.1095,0,0,0,0,0,0,-0.0632,-0.0633,-0.0659,-0.0657,-0.0663,-0.0698,-0.0695,-0.0702,-0.0716,-0.0788,-0.0802,-0.0736,-0.0859,-0.0877,-0.093,-0.0951,-0.0952,-0.0958,-0.1094,-0.1095,-0.1095,-0.1052,0,0,0,0,0,0,-0.0631,-0.0632,-0.0627,-0.0656,-0.0662,-0.0675,-0.0695,-0.0703,-0.0717,-0.0721,-0.0798,-0.0813,-0.0861,-0.092,-0.0936,-0.0959,-0.0963,-0.1094,-0.1095,-0.1095,-0.1053,-0.1051,-0.1049,0,0,0,0,0,-0.063,-0.0622,-0.0626,-0.0628,-0.0652,-0.0674,-0.0681,-0.0709,-0.0716,-0.0723,-0.0769,-0.081,-0.0934,-0.0925,-0.0943,-0.0969,-0.1094,-0.1094,-0.1095,-0.1054,-0.1051,-0.1049,0,0,0,0,0,0,-0.0606,-0.0627,-0.0631,-0.0627,-0.0647,-0.0682,-0.069,-0.0704,-0.0743,-0.075,-0.0813,-0.0831,-0.0888,-0.0928,-0.0916,-0.1011,-0.1022,-0.1026,-0.0985,-0.0983,-0.0981,-0.0973,-0.0968,0,0,0,0,0,-0.0597,-0.0601,-0.0622,-0.0618,-0.0627,-0.0655,-0.0667,-0.0684,-0.072,-0.0737,-0.0789,-0.0847,-0.0904,-0.094,-0.0994,-0.1045,-0.1061,-0.1074,-0.1071,-0.1069,-0.1075,-0.1112,-0.1114,-0.1097,-0.1097,-0.1097,0,0,-0.0585,-0.0598,-0.0598,-0.0614,-0.0633,-0.0652,-0.0664,-0.068,-0.0702,-0.0751,-0.0799,-0.0843,-0.0914,-0.097,-0.1,-0.1008,-0.1074,-0.107,-0.1068,-0.1075,-0.1113,-0.1115,-0.1116,-0.1098,-0.1097,-0.1097,0,0,-0.0574,-0.0575,-0.058,-0.0597,-0.0621,-0.0642,-0.0643,-0.0676,-0.0698,-0.0741,-0.0783,-0.0829,-0.0918,-0.0969,-0.1007,-0.1026,-0.1058,-0.1047,-0.104,-0.1076,-0.1077,-0.1079,-0.1061,-0.1062,-0.105,-0.105,-0.105,0,-0.0559,-0.0565,-0.0584,-0.0599,-0.0609,-0.0636,-0.0645,-0.0677,-0.0723,-0.0739,-0.0754,-0.0865,-0.0921,-0.0991,-0.0999,-0.1024,-0.1029,-0.1042,-0.1072,-0.1074,-0.1077,-0.1059,-0.106,-0.1048,-0.1048,-0.1048,-0.1049,0,-0.0559,-0.0565,-0.0569,-0.0598,-0.0613,-0.0622,-0.0661,-0.068,-0.0706,-0.0739,-0.0799,-0.0865,-0.0925,-0.0957,-0.099,-0.104,-0.1029,-0.1059,-0.1075,-0.1076,-0.1056,-0.1058,-0.1045,-0.1046,-0.1046,-0.1047,0,0,-0.0524,-0.0561,-0.0562,-0.0564,-0.0609,-0.0612,-0.0652,-0.0685,-0.0684,-0.076,-0.0767,-0.0883,-0.0902,-0.0945,-0.099,-0.1033,-0.1043,-0.1052,-0.1055,-0.1026,-0.1081,-0.0963,-0.0954,-0.1079,-0.108,-0.1081,-0.1045,0,-0.0516,-0.0527,-0.0557,-0.0565,-0.0568,-0.0603,-0.0626,-0.0661,-0.0688,-0.0702,-0.079,-0.082,-0.0905,-0.0907,-0.0974,-0.1012,-0.1053,-0.1048,-0.1093,-0.1093,-0.0983,-0.0955,-0.0893,-0.0847,-0.1048,-0.1048,-0.1048,0,-0.0505,-0.0512,-0.0512,-0.0525,-0.0528,-0.0536,-0.0541,-0.0565,-0.0609,-0.0627,-0.069,-0.0738,-0.0811,-0.0868,-0.098,-0.0968,-0.1029,-0.1073,-0.1073,-0.0985,-0.098,-0.0888,-0.0844,-0.1089,-0.1052,-0.1052,-0.1051,0,-0.0452,-0.0478,-0.0467,-0.0475,-0.0499,-0.0493,-0.0503,-0.0533,-0.0507,-0.0558,-0.052,-0.0656,-0.0653,-0.0793,-0.0873,-0.0932,-0.0953,-0.1045,-0.1005,-0.0995,-0.0962,-0.0947,-0.1156,-0.1138,-0.1138,-0.1139,-0.1139,0,-0.0422,-0.0411,-0.0431,-0.042,-0.0378,-0.0426,-0.0374,-0.04,-0.0388,-0.0314,-0.0459,-0.0393,-0.0635,-0.0666,-0.0812,-0.086,-0.0906,-0.0986,-0.0982,-0.0938,-0.0922,-0.1149,-0.1308,-0.1137,-0.1137,-0.1138,-0.1138,0,-0.0347,-0.0378,-0.0346,-0.0354,-0.0344,-0.0303,-0.0251,-0.0198,-0.0217,-0.0109,-0.0108,-0.0173,-0.0203,-0.0394,-0.0554,-0.0713,-0.0915,-0.0828,-0.0721,-0.0706,-0.0934,-0.1089,-0.1244,-0.1346,-0.0816,-0.0813,-0.081,0,-0.03,-0.0281,-0.0257,-0.0201,-0.0189,-0.0137,-0.0079,-0.0101,-0.0018,0.0068,0.0155,0.0147,0.0226,0.0051,-0.0233,-0.0439,-0.0731,-0.0575,-0.0709,-0.0917,-0.1092,-0.1208,-0.1295,-0.0642,-0.0638,-0.0635,-0.0633,0,-0.0178,-0.0174,-0.0132,-0.0029,0.0042,0.012,0.0205,0.0298,0.0321,0.0441,0.0637,0.0718,0.0566,0.0418,0.0102,-0.0099,-0.0734,-0.0516,-0.0796,-0.1014,-0.1096,-0.1197,-0.0668,-0.0605,-0.0608,-0.061,-0.0612,-0.0613,-0.0046,0.0015,0.0081,0.018,0.0271,0.0406,0.05,0.0632,0.0816,0.1034,0.1065,0.129,0.0962,0.0574,0.0222,-0.041,-0.049,-0.0657,-0.0833,-0.0935,-0.1034,-0.0394,-0.0288,-0.0289,-0.0289,-0.029,-0.0291,0,0.0131,0.0186,0.0295,0.0423,0.0555,0.0541,0.0717,0.0835,0.1103,0.1383,0.1596,0.1729,0.1256,0.0687,-0.014,-0.0647,-0.0917,-0.097,-0.121,-0.1293,-0.0773,-0.0769,-0.0682,-0.0682,-0.0681,-0.0681,-0.0681,-0.0681,0.0248,0.0375,0.0404,0.0651,0.0741,0.0904,0.1001,0.1208,0.1437,0.1884,0.2169,0.235,0.2013,0.0356,-0.0808,-0.11,-0.1566,-0.1598,-0.1845,-0.1593,-0.1581,-0.157,-0.1606,-0.1697,-0.1698,-0.2295,-0.2301,-0.2306]}],[{"header":{"parameterUnit":"m.s-1","parameterCategory":2,"la1":30.2991,"la2":30.254,"lo1":-89.0895,"lo2":-89.0444,"dy":0.0017,"dx":0.0017,"nx":28,"ny":28,"refTime":"2025-01-29T09:00:00:Z","depth":"2","parameterNumber":2,"parameterNumberName":"U-component_of_CURRENTS"},"data":[0,0,0,0,0,0,0,0,0,0,0,0,0,0,0,0,0,0,0,0,0,0,0,0,0,0,0,0,0,0,0,0,0,0,0,0,0,0,0,0,0,0,0,0,0,0,0,0,0,0,0,0,0,0,0,0,0,0,0.2068,0.2068,0,0.2133,0.2134,0.2135,0.2153,0.2152,0.2152,0.2152,0.2199,0.2201,0.2202,0,0,0,0,0,0,0,0,0,0,0,0,0,0.1977,0.1979,0.2068,0.2069,0.2069,0.2133,0.2134,0.2135,0.2153,0.2152,0.2152,0.2151,0.2199,0.2201,0.2203,0,0,0,0,0,0,0,0,0,0,0,0,0,0.2027,0.1979,0.2068,0.2086,0.2088,0.2133,0.2134,0.2135,0.2153,0.2152,0.2152,0.2151,0.2198,0.22,0.2203,0.2231,0,0,0.221,0.2212,0,0,0,0,0,0,0,0,0.2025,0.2031,0.2082,0.2084,0.2087,0.2134,0.212,0.2166,0.2153,0.2129,0.2151,0.2151,0.2176,0.218,0.2195,0.2233,0.2235,0.2211,0.2212,0.2213,0.2214,0,0,0,0,0,0,0,0.2021,0.2028,0.2094,0.2083,0.2086,0.2097,0.2103,0.2129,0.2155,0.2131,0.2132,0.2139,0.2177,0.2192,0.2196,0.2236,0.2211,0.2213,0.2214,0.2215,0.2325,0.2326,0,0,0,0,0,0,0.2012,0.2025,0.2092,0.2096,0.2053,0.2099,0.2106,0.212,0.2155,0.216,0.2139,0.214,0.2188,0.2193,0.2198,0.2264,0.2213,0.2216,0.2217,0.2323,0.2325,0.2326,0,0,0,0,0,0,0.201,0.2018,0.2089,0.2061,0.2071,0.2101,0.2116,0.2121,0.2149,0.2162,0.2166,0.2163,0.2188,0.2194,0.2236,0.2265,0.2217,0.2219,0.2322,0.2324,0.2326,0.2377,0,0,0,0,0,0,0.2008,0.2017,0.2029,0.2061,0.2072,0.2125,0.2117,0.2123,0.2153,0.2154,0.2183,0.2186,0.2188,0.2232,0.2238,0.2267,0.2221,0.232,0.2322,0.2325,0.2373,0.238,0.2386,0,0,0,0,0,0.2004,0.2016,0.203,0.2038,0.2086,0.2126,0.2134,0.2152,0.2155,0.2174,0.2195,0.2186,0.2252,0.2236,0.2242,0.2273,0.2318,0.2322,0.2325,0.237,0.2379,0.2386,0,0,0,0,0,0,0.1977,0.2021,0.2035,0.2059,0.2096,0.2129,0.215,0.2164,0.2197,0.2202,0.2209,0.2215,0.2259,0.2262,0.2243,0.2311,0.2283,0.2287,0.2315,0.2323,0.2329,0.234,0.2223,0,0,0,0,0,0.198,0.2007,0.2046,0.207,0.209,0.2126,0.2146,0.2163,0.2193,0.2208,0.2222,0.2245,0.2278,0.2296,0.2317,0.2361,0.2383,0.2383,0.239,0.2395,0.2409,0.2455,0.2467,0.2337,0.2337,0.2337,0,0,0.1972,0.2004,0.2016,0.2067,0.2099,0.2136,0.2137,0.2177,0.221,0.2208,0.2253,0.2269,0.2294,0.234,0.236,0.2346,0.245,0.2399,0.2404,0.2415,0.246,0.2472,0.2484,0.2339,0.2339,0.2338,0,0,0.1979,0.2007,0.2037,0.2069,0.2124,0.2152,0.2167,0.2209,0.2233,0.2279,0.2288,0.2325,0.2363,0.2391,0.2411,0.2469,0.248,0.2473,0.2521,0.2565,0.2576,0.2586,0.2655,0.2671,0.2479,0.2479,0.2479,0,0.1971,0.2014,0.205,0.2088,0.2119,0.2161,0.2199,0.2235,0.2282,0.2313,0.2297,0.238,0.239,0.2468,0.2485,0.2485,0.252,0.2488,0.2574,0.2584,0.2594,0.2661,0.2678,0.2482,0.2481,0.2481,0.2481,0,0.2,0.2037,0.2059,0.2126,0.2164,0.2204,0.2257,0.2297,0.2325,0.236,0.2433,0.2455,0.2511,0.2514,0.2519,0.26,0.2608,0.2575,0.2554,0.261,0.2678,0.2694,0.2486,0.2485,0.2484,0.2483,0,0,0.1971,0.2063,0.2069,0.2105,0.2187,0.2218,0.2289,0.2365,0.2415,0.2458,0.2525,0.2579,0.2603,0.2627,0.2642,0.2673,0.2768,0.2657,0.2658,0.2726,0.2897,0.2863,0.2878,0.275,0.2753,0.2755,0.2927,0,0.1986,0.2051,0.2103,0.2168,0.2205,0.2272,0.2332,0.2405,0.2464,0.2533,0.2588,0.265,0.2647,0.2677,0.272,0.2765,0.2811,0.2727,0.2833,0.2837,0.2798,0.2894,0.2682,0.2813,0.2943,0.2946,0.2948,0,0.1996,0.2039,0.2101,0.2193,0.2218,0.2267,0.2373,0.2434,0.255,0.2594,0.2684,0.2731,0.2839,0.2784,0.2929,0.2882,0.2901,0.2912,0.2918,0.2878,0.2832,0.2773,0.2838,0.2975,0.2973,0.2971,0.2969,0,0.1947,0.2039,0.2088,0.2115,0.2222,0.2272,0.2339,0.2453,0.2519,0.2643,0.2703,0.2832,0.2901,0.2966,0.3024,0.2993,0.3142,0.31,0.3091,0.309,0.2927,0.2906,0.3169,0.3168,0.3168,0.3168,0.3167,0,0.1939,0.197,0.2067,0.2088,0.215,0.2243,0.2331,0.2408,0.2539,0.2617,0.2739,0.2823,0.2941,0.3043,0.3077,0.3165,0.3205,0.3135,0.3138,0.2941,0.2921,0.3057,0.3041,0.3174,0.3173,0.3171,0.317,0,0.1873,0.1938,0.1989,0.2096,0.2128,0.2172,0.2314,0.2374,0.251,0.2619,0.2667,0.2856,0.3012,0.3116,0.3226,0.3233,0.3299,0.3289,0.3068,0.3041,0.3214,0.3199,0.3359,0.3359,0.3359,0.336,0.336,0,0.1862,0.1872,0.1965,0.1998,0.2049,0.213,0.2184,0.2329,0.2406,0.2625,0.2674,0.2874,0.2993,0.3199,0.3246,0.3349,0.3332,0.3165,0.3055,0.325,0.3237,0.3221,0.3207,0.2876,0.2872,0.2869,0.2866,0,0.1811,0.1833,0.1866,0.1926,0.1983,0.2046,0.2149,0.2201,0.237,0.2485,0.2649,0.277,0.2998,0.3035,0.3162,0.3172,0.3148,0.3107,0.3378,0.285,0.2805,0.2788,0.2788,0.2839,0.2842,0.2844,0.2845,0.2846,0.1762,0.177,0.1809,0.185,0.1906,0.1956,0.1977,0.2093,0.2193,0.234,0.2518,0.2636,0.2771,0.2895,0.2872,0.2875,0.3077,0.2948,0.2953,0.2963,0.2866,0.2822,0.2844,0.2846,0.2849,0.2851,0.2853,0,0.1692,0.1714,0.1744,0.1785,0.1786,0.1865,0.1941,0.1938,0.2,0.2182,0.2316,0.2263,0.2373,0.2496,0.2485,0.2547,0.2475,0.2441,0.2313,0.2347,0.2375,0.224,0.2057,0.2054,0.2051,0.2048,0,0,0.1665,0.1649,0.1652,0.1633,0.1677,0.1653,0.1672,0.169,0.1786,0.1843,0.1931,0.221,0.2406,0.2154,0.2193,0.2106,0.2181,0.2038,0.2692,0.2572,0.2594,0.271,0.2548,0,0,0,0,0]},{"header":{"parameterUnit":"m.s-1","parameterCategory":2,"la1":30.2991,"la2":30.254,"lo1":-89.0895,"lo2":-89.0444,"dy":0.0017,"dx":0.0017,"nx":28,"ny":28,"refTime":"2025-01-29T09:00:00:Z","depth":"2","parameterNumber":3,"parameterNumberName":"V-component_of_CURRENTS"},"data":[0,0,0,0,0,0,0,0,0,0,0,0,0,0,0,0,0,0,0,0,0,0,0,0,0,0,0,0,0,0,0,0,0,0,0,0,0,0,0,0,0,0,0,0,0,0,0,0,0,0,0,0,0,0,0,0,0,0,-0.0106,-0.0107,0,-0.0194,-0.0195,-0.0196,-0.0257,-0.0258,-0.0258,-0.0258,-0.0356,-0.0358,-0.036,0,0,0,0,0,0,0,0,0,0,0,0,0,-0.0033,-0.0034,-0.0106,-0.0107,-0.0108,-0.0194,-0.0195,-0.0196,-0.0257,-0.0258,-0.0258,-0.0259,-0.0355,-0.0358,-0.036,0,0,0,0,0,0,0,0,0,0,0,0,0,-0.0088,-0.0034,-0.0106,-0.0148,-0.0153,-0.0194,-0.0195,-0.0197,-0.0257,-0.0258,-0.0258,-0.0259,-0.0354,-0.0357,-0.0361,-0.0369,0,0,-0.0371,-0.0372,0,0,0,0,0,0,0,0,-0.0084,-0.009,-0.0141,-0.0146,-0.0151,-0.0215,-0.0205,-0.0255,-0.0257,-0.0218,-0.0258,-0.0259,-0.0309,-0.0316,-0.0332,-0.0373,-0.0377,-0.0371,-0.0373,-0.0374,-0.0375,0,0,0,0,0,0,0,-0.0081,-0.0087,-0.0141,-0.0142,-0.0148,-0.0178,-0.0186,-0.0215,-0.0259,-0.0222,-0.0226,-0.0235,-0.0312,-0.0328,-0.0334,-0.0379,-0.0371,-0.0374,-0.0376,-0.0377,-0.0448,-0.0448,0,0,0,0,0,0,-0.0066,-0.0083,-0.0139,-0.0144,-0.0118,-0.0178,-0.0187,-0.0194,-0.0259,-0.0269,-0.0234,-0.0237,-0.0322,-0.033,-0.0338,-0.0342,-0.0374,-0.0378,-0.0379,-0.0448,-0.0448,-0.0448,0,0,0,0,0,0,-0.0064,-0.007,-0.0135,-0.0115,-0.0126,-0.0178,-0.0186,-0.0195,-0.0216,-0.0268,-0.0279,-0.0245,-0.0323,-0.0333,-0.0365,-0.0347,-0.0379,-0.0382,-0.0448,-0.0448,-0.0448,-0.0356,0,0,0,0,0,0,-0.0061,-0.0068,-0.0068,-0.0114,-0.0126,-0.0149,-0.0185,-0.0197,-0.022,-0.0225,-0.0281,-0.0291,-0.0324,-0.0359,-0.0368,-0.0352,-0.0385,-0.0448,-0.0448,-0.0448,-0.0359,-0.0353,-0.0347,0,0,0,0,0,-0.0058,-0.0045,-0.0068,-0.0074,-0.0124,-0.0148,-0.0157,-0.0197,-0.022,-0.022,-0.0264,-0.0289,-0.0364,-0.0362,-0.0372,-0.0356,-0.0449,-0.0448,-0.0448,-0.0362,-0.0354,-0.0348,0,0,0,0,0,0,-0.0007,-0.0052,-0.0077,-0.0078,-0.0109,-0.0158,-0.0164,-0.0193,-0.0229,-0.0238,-0.0289,-0.0301,-0.0323,-0.0356,-0.0352,-0.0379,-0.041,-0.0412,-0.0342,-0.0335,-0.0329,-0.0308,-0.0387,0,0,0,0,0,0.0003,-0.0002,-0.005,-0.0049,-0.0066,-0.0116,-0.0133,-0.0161,-0.0199,-0.0216,-0.0252,-0.0295,-0.0329,-0.0344,-0.038,-0.0392,-0.0426,-0.039,-0.0384,-0.0379,-0.0371,-0.0408,-0.0404,-0.0447,-0.0447,-0.0447,0,0,0.0022,-0.0001,-0.0005,-0.0039,-0.0071,-0.0073,-0.0128,-0.0148,-0.0144,-0.022,-0.0225,-0.0276,-0.033,-0.0345,-0.0357,-0.0369,-0.0385,-0.0378,-0.0373,-0.0368,-0.0407,-0.0403,-0.0399,-0.0447,-0.0447,-0.0447,0,0,0.0068,0.0037,0.0046,0.003,-0.001,-0.0042,-0.0045,-0.0093,-0.0112,-0.0131,-0.0184,-0.0222,-0.0269,-0.03,-0.0324,-0.0308,-0.0355,-0.0323,-0.027,-0.0306,-0.0302,-0.0299,-0.0333,-0.0334,-0.0315,-0.0315,-0.0315,0,0.0092,0.0097,0.0047,0.0059,0.0052,-0.0021,-0.0007,-0.0031,-0.0078,-0.0089,-0.0119,-0.02,-0.0244,-0.0266,-0.0263,-0.0291,-0.0323,-0.0287,-0.0296,-0.0294,-0.0292,-0.0328,-0.033,-0.031,-0.0311,-0.0311,-0.0312,0,0.0146,0.0151,0.0158,0.0145,0.0133,0.0133,0.0091,0.0079,0.0038,0.0006,-0.0032,-0.0103,-0.0155,-0.0172,-0.0213,-0.0225,-0.0255,-0.0285,-0.0307,-0.0282,-0.0322,-0.0325,-0.0304,-0.0305,-0.0307,-0.0308,0,0,0.0199,0.0194,0.0197,0.0207,0.0177,0.0175,0.018,0.0157,0.0167,0.0102,0.0102,0.0026,-0.0036,-0.0068,-0.0131,-0.0159,-0.018,-0.0212,-0.0216,-0.0232,-0.0261,-0.0274,-0.0281,-0.0212,-0.0212,-0.0212,-0.029,0,0.0251,0.0298,0.0273,0.0314,0.0332,0.0281,0.0301,0.0274,0.0237,0.0224,0.0129,0.0099,0.001,-0.0017,-0.0065,-0.0158,-0.0187,-0.0156,-0.0294,-0.0298,-0.0302,-0.0284,-0.0259,-0.0326,-0.0294,-0.0295,-0.0295,0,0.0308,0.0336,0.0384,0.0404,0.0405,0.0412,0.0417,0.0421,0.0381,0.0353,0.0284,0.0212,0.0132,0.0067,-0.0084,-0.0064,-0.0152,-0.0218,-0.0224,-0.027,-0.0319,-0.0349,-0.0335,-0.0303,-0.0302,-0.0301,-0.0301,0,0.0374,0.0409,0.0449,0.0459,0.0472,0.0476,0.0468,0.0452,0.0472,0.042,0.0422,0.0303,0.025,0.0113,-0.0051,-0.007,-0.0196,-0.0244,-0.0334,-0.0337,-0.0359,-0.0362,-0.0322,-0.0322,-0.0322,-0.0322,-0.0322,0,0.0437,0.0472,0.048,0.0506,0.0557,0.0537,0.0576,0.0559,0.056,0.0591,0.0475,0.0475,0.0262,0.0157,-0.0008,-0.0185,-0.0176,-0.0319,-0.0354,-0.0327,-0.0326,-0.0344,-0.0346,-0.0325,-0.0324,-0.0324,-0.0323,0,0.0492,0.0501,0.055,0.0574,0.0584,0.061,0.0637,0.0681,0.0662,0.0699,0.0687,0.0598,0.0449,0.0249,0.0043,-0.0114,-0.0284,-0.0337,-0.0289,-0.0318,-0.0414,-0.041,-0.0465,-0.0466,-0.0467,-0.0468,-0.0469,0,0.0513,0.0549,0.0596,0.0628,0.0628,0.0669,0.0713,0.072,0.0771,0.0779,0.0809,0.07,0.0632,0.0318,0.0031,-0.0247,-0.0271,-0.0387,-0.0422,-0.0398,-0.0427,-0.0422,-0.0417,-0.042,-0.042,-0.042,-0.042,0,0.0553,0.0566,0.061,0.0684,0.0725,0.0798,0.0848,0.0914,0.0938,0.0977,0.1008,0.0961,0.0664,0.0384,0.0016,-0.0171,-0.0353,-0.04,-0.0384,-0.0381,-0.036,-0.0387,-0.0383,-0.0421,-0.0421,-0.0421,-0.0421,-0.0421,0.0567,0.0604,0.066,0.0733,0.0801,0.0904,0.0978,0.1054,0.1147,0.1209,0.1158,0.1099,0.0778,0.0305,-0.0024,-0.0361,-0.036,-0.0474,-0.0472,-0.047,-0.0444,-0.0424,-0.0494,-0.0494,-0.0495,-0.0495,-0.0495,0,0.0575,0.063,0.0705,0.0797,0.0892,0.0929,0.1067,0.1147,0.1265,0.1319,0.1332,0.1045,0.0727,0.0372,-0.0137,-0.0447,-0.0469,-0.0527,-0.0491,-0.0488,-0.0485,-0.046,-0.0515,-0.0516,-0.0517,-0.0517,0,0,0.0575,0.0649,0.0703,0.0852,0.0936,0.1077,0.1171,0.1283,0.1359,0.1409,0.139,0.1298,0.0858,0.0494,0.0063,-0.0222,-0.0276,-0.0272,-0.0225,-0.0129,-0.0122,-0.0427,-0.0381,0,0,0,0,0]}],[{"header":{"parameterUnit":"m.s-1","parameterCategory":2,"la1":30.2991,"la2":30.254,"lo1":-89.0895,"lo2":-89.0444,"dy":0.0017,"dx":0.0017,"nx":28,"ny":28,"refTime":"2025-01-29T09:00:00:Z","depth":"4","parameterNumber":2,"parameterNumberName":"U-component_of_CURRENTS"},"data":[0,0,0,0,0,0,0,0,0,0,0,0,0,0,0,0,0,0,0,0,0,0,0,0,0,0,0,0,0,0,0,0,0,0,0,0,0,0,0,0,0,0,0,0,0,0,0,0,0,0,0,0,0,0,0,0,0,0,0.1318,0.1319,0,0.1404,0.1404,0.1405,0.1465,0.1466,0.1466,0.1467,0.1533,0.1534,0.1535,0,0,0,0,0,0,0,0,0,0,0,0,0,0.1189,0.1191,0.1318,0.1319,0.1321,0.1403,0.1404,0.1405,0.1465,0.1466,0.1467,0.1467,0.1532,0.1534,0.1535,0,0,0,0,0,0,0,0,0,0,0,0,0,0.1253,0.1191,0.1318,0.1363,0.1368,0.1403,0.1404,0.1405,0.1464,0.1466,0.1467,0.1468,0.1532,0.1534,0.1535,0.1521,0,0,0.154,0.154,0,0,0,0,0,0,0,0,0.125,0.1258,0.1355,0.136,0.1366,0.1428,0.1383,0.1444,0.1464,0.1424,0.1467,0.1468,0.1497,0.1502,0.151,0.1524,0.1527,0.154,0.1541,0.1541,0.1542,0,0,0,0,0,0,0,0.1245,0.1254,0.1348,0.1356,0.1363,0.1374,0.1384,0.1395,0.145,0.1428,0.1433,0.1448,0.15,0.1509,0.1512,0.1528,0.154,0.1541,0.1542,0.1543,0.1642,0.1643,0,0,0,0,0,0,0.1242,0.125,0.1346,0.1351,0.1313,0.1375,0.1386,0.1404,0.145,0.146,0.1447,0.145,0.1506,0.1511,0.1515,0.1591,0.1541,0.1543,0.1544,0.164,0.1642,0.1644,0,0,0,0,0,0,0.1239,0.1249,0.1342,0.1305,0.1318,0.1377,0.1395,0.1405,0.1445,0.1466,0.1474,0.1481,0.1507,0.1513,0.1559,0.1591,0.1544,0.1545,0.1638,0.1641,0.1643,0.1685,0,0,0,0,0,0,0.1234,0.1248,0.127,0.1305,0.132,0.1381,0.1395,0.1406,0.1452,0.1459,0.1497,0.1503,0.1508,0.1557,0.1561,0.1592,0.1546,0.1636,0.1639,0.1642,0.1682,0.1689,0.1695,0,0,0,0,0,0.1229,0.125,0.127,0.1282,0.1345,0.1382,0.1391,0.1433,0.1453,0.1473,0.1508,0.1504,0.158,0.156,0.1564,0.1596,0.1634,0.1638,0.1642,0.1679,0.1688,0.1695,0,0,0,0,0,0,0.1205,0.1259,0.1282,0.1319,0.1358,0.1394,0.142,0.1447,0.1489,0.1506,0.1521,0.1529,0.1581,0.1584,0.1561,0.1636,0.1608,0.1613,0.1635,0.1643,0.165,0.1652,0.1547,0,0,0,0,0,0.121,0.1242,0.1289,0.1321,0.1342,0.1385,0.1411,0.1442,0.148,0.1502,0.1532,0.1566,0.1594,0.1616,0.1638,0.1675,0.1683,0.1701,0.1708,0.1713,0.172,0.1756,0.1766,0.1657,0.1657,0.1656,0,0,0.1208,0.1244,0.1263,0.1319,0.1352,0.1386,0.1404,0.1452,0.1488,0.15,0.1564,0.1589,0.1609,0.1656,0.168,0.1667,0.1752,0.1718,0.1723,0.1727,0.1761,0.1771,0.1781,0.1659,0.1659,0.1658,0,0,0.1213,0.1255,0.1282,0.1317,0.1378,0.1404,0.1424,0.1481,0.1517,0.1572,0.1595,0.1644,0.1685,0.1713,0.1727,0.1784,0.1784,0.1796,0.1835,0.187,0.1879,0.1887,0.1919,0.1929,0.1802,0.1802,0.1802,0,0.121,0.1255,0.1294,0.133,0.1365,0.1414,0.145,0.1487,0.1556,0.1591,0.16,0.1691,0.171,0.1768,0.1796,0.1798,0.1819,0.1799,0.1877,0.1885,0.1893,0.1924,0.1935,0.1805,0.1804,0.1804,0.1804,0,0.123,0.1277,0.1295,0.1358,0.1396,0.1437,0.1493,0.1543,0.1592,0.1632,0.1712,0.1747,0.1803,0.182,0.1826,0.1897,0.1895,0.1878,0.1853,0.1906,0.1936,0.1946,0.1808,0.1807,0.1807,0.1806,0,0,0.1193,0.129,0.1301,0.1339,0.142,0.1449,0.1516,0.1585,0.1639,0.1704,0.1774,0.1833,0.1866,0.1886,0.191,0.1947,0.2021,0.1944,0.1945,0.1969,0.2107,0.2011,0.2013,0.202,0.2022,0.2023,0.2109,0,0.1199,0.1267,0.1318,0.1384,0.1422,0.1491,0.1545,0.1618,0.1684,0.1762,0.1817,0.1889,0.1886,0.1933,0.1968,0.2013,0.205,0.2,0.2057,0.2059,0.1961,0.2023,0.203,0.2116,0.2119,0.212,0.2122,0,0.1197,0.1249,0.1315,0.1409,0.1433,0.148,0.1584,0.1642,0.1752,0.1809,0.189,0.194,0.2027,0.2008,0.2102,0.2074,0.2098,0.212,0.2123,0.2025,0.1983,0.2051,0.2141,0.2139,0.2138,0.2136,0.2135,0,0.1145,0.1243,0.1298,0.133,0.144,0.149,0.1553,0.1662,0.1726,0.1855,0.1922,0.2011,0.2084,0.2122,0.2184,0.2154,0.2277,0.2231,0.2165,0.2158,0.2198,0.2188,0.2289,0.2289,0.2288,0.2288,0.2288,0,0.1122,0.1167,0.1283,0.1313,0.1385,0.1471,0.1559,0.1639,0.1762,0.1842,0.1948,0.2025,0.212,0.2201,0.2219,0.2236,0.2306,0.2185,0.2177,0.2215,0.2207,0.2206,0.2195,0.2291,0.2291,0.229,0.2289,0,0.1055,0.1133,0.1199,0.132,0.1364,0.1415,0.1559,0.1619,0.1749,0.1862,0.1914,0.2067,0.2172,0.2252,0.234,0.2282,0.2306,0.2293,0.2357,0.2349,0.2152,0.2142,0.2207,0.2204,0.2202,0.22,0.2198,0,0.1025,0.1055,0.1187,0.123,0.1291,0.1388,0.1452,0.1597,0.1663,0.1871,0.1912,0.208,0.2167,0.221,0.2297,0.2334,0.2307,0.2299,0.2192,0.2159,0.2146,0.214,0.2134,0.2195,0.2194,0.2194,0.2193,0,0.0962,0.1019,0.1077,0.1166,0.1242,0.1318,0.1425,0.1466,0.1634,0.177,0.1874,0.1954,0.2077,0.2145,0.2211,0.2223,0.2287,0.2275,0.2278,0.2177,0.2146,0.2133,0.213,0.2186,0.2187,0.2187,0.2188,0,0.0912,0.0933,0.1017,0.1087,0.1174,0.1224,0.1296,0.1387,0.1474,0.1696,0.1731,0.1909,0.2054,0.2092,0.2146,0.2166,0.2116,0.2027,0.2041,0.2051,0.1963,0.1898,0.1868,0,0,0,0,0,0.0853,0.0873,0.0931,0.1001,0.1083,0.1135,0.1265,0.134,0.1507,0.1535,0.1628,0.1735,0.1842,0.1935,0.1923,0.208,0.2122,0.2058,0.2024,0.2143,0.2152,0.2065,0,0,0,0,0,0,0.0813,0.0862,0.0895,0.0916,0.0944,0.1022,0.11,0.1215,0.1239,0.1417,0.1481,0.1622,0.1746,0.1822,0.1882,0.1912,0.1856,0.2169,0.2165,0.2138,0.2146,0.2154,0.2067,0,0,0,0,0]},{"header":{"parameterUnit":"m.s-1","parameterCategory":2,"la1":30.2991,"la2":30.254,"lo1":-89.0895,"lo2":-89.0444,"dy":0.0017,"dx":0.0017,"nx":28,"ny":28,"refTime":"2025-01-29T09:00:00:Z","depth":"4","parameterNumber":3,"parameterNumberName":"V-component_of_CURRENTS"},"data":[0,0,0,0,0,0,0,0,0,0,0,0,0,0,0,0,0,0,0,0,0,0,0,0,0,0,0,0,0,0,0,0,0,0,0,0,0,0,0,0,0,0,0,0,0,0,0,0,0,0,0,0,0,0,0,0,0,0,0.005,0.0049,0,-0.0009,-0.001,-0.001,-0.0059,-0.006,-0.006,-0.0061,-0.0112,-0.0113,-0.0114,0,0,0,0,0,0,0,0,0,0,0,0,0,0.0106,0.0105,0.005,0.0049,0.0048,-0.0009,-0.001,-0.001,-0.0059,-0.006,-0.0061,-0.0061,-0.0112,-0.0113,-0.0114,0,0,0,0,0,0,0,0,0,0,0,0,0,0.0068,0.0105,0.005,0.0017,0.0013,-0.0009,-0.001,-0.0011,-0.0059,-0.006,-0.0061,-0.0061,-0.0111,-0.0113,-0.0114,-0.0105,0,0,-0.0118,-0.0118,0,0,0,0,0,0,0,0,0.007,0.0066,0.0022,0.0019,0.0015,-0.0028,-0.0009,-0.0042,-0.0059,-0.0031,-0.0061,-0.0062,-0.0083,-0.0087,-0.0095,-0.0108,-0.011,-0.0118,-0.0119,-0.0119,-0.012,0,0,0,0,0,0,0,0.0073,0.0068,0.0027,0.0022,0.0017,0.0,-0.0006,-0.0015,-0.0051,-0.0034,-0.0038,-0.0044,-0.0085,-0.0094,-0.0097,-0.011,-0.0118,-0.0119,-0.012,-0.012,-0.0139,-0.0138,0,0,0,0,0,0,0.0081,0.0071,0.0029,0.0025,0.0041,-0.0,-0.0007,-0.0013,-0.0051,-0.0058,-0.0044,-0.0046,-0.0091,-0.0095,-0.0099,-0.0085,-0.0119,-0.012,-0.0121,-0.0139,-0.0139,-0.0138,0,0,0,0,0,0,0.0083,0.0078,0.0031,0.0046,0.0039,-0.0,-0.0007,-0.0014,-0.0025,-0.0059,-0.0066,-0.0048,-0.0092,-0.0097,-0.0109,-0.0088,-0.0121,-0.0122,-0.0139,-0.0139,-0.0139,-0.0061,0,0,0,0,0,0,0.0085,0.0079,0.0082,0.0047,0.0038,0.0027,-0.0006,-0.0014,-0.0028,-0.0033,-0.0065,-0.0071,-0.0093,-0.0107,-0.0111,-0.009,-0.0123,-0.014,-0.0139,-0.0139,-0.0064,-0.0058,-0.0053,0,0,0,0,0,0.0087,0.01,0.0083,0.0077,0.0042,0.0027,0.0022,-0.0009,-0.0027,-0.0024,-0.0053,-0.007,-0.0107,-0.0108,-0.0112,-0.0091,-0.014,-0.0139,-0.0139,-0.0066,-0.0059,-0.0053,0,0,0,0,0,0,0.0126,0.0095,0.0075,0.0078,0.0056,0.0019,0.0021,-0.0003,-0.0024,-0.0029,-0.0064,-0.0071,-0.0076,-0.0097,-0.0097,-0.0098,-0.0126,-0.0127,-0.007,-0.0063,-0.0058,-0.0039,-0.0124,0,0,0,0,0,0.0136,0.0136,0.0101,0.0103,0.0096,0.0058,0.0049,0.0026,0.0001,-0.001,-0.0034,-0.006,-0.0075,-0.008,-0.01,-0.0094,-0.0128,-0.0086,-0.008,-0.0075,-0.0065,-0.0104,-0.01,-0.0136,-0.0136,-0.0136,0,0,0.0151,0.0134,0.0133,0.0111,0.0092,0.0097,0.0051,0.0042,0.0047,-0.001,-0.0008,-0.0042,-0.0072,-0.0071,-0.0074,-0.0084,-0.0085,-0.0075,-0.007,-0.0062,-0.0103,-0.0099,-0.0096,-0.0136,-0.0136,-0.0136,0,0,0.0186,0.0167,0.018,0.0169,0.0145,0.0126,0.0126,0.0092,0.0079,0.0073,0.0032,0.001,-0.001,-0.0029,-0.004,-0.0016,-0.0058,-0.0023,0.0028,-0.0009,-0.0006,-0.0004,-0.0046,-0.0048,-0.0015,-0.0015,-0.0015,0,0.0205,0.0213,0.0183,0.0195,0.0194,0.0145,0.0162,0.0149,0.0114,0.0109,0.0084,0.0041,0.0013,0.0014,0.0019,-0.0,-0.0034,0.001,-0.0,0.0001,0.0002,-0.0042,-0.0045,-0.0011,-0.0011,-0.0012,-0.0012,0,0.0249,0.0257,0.0267,0.0267,0.0264,0.0269,0.0246,0.0241,0.0216,0.0193,0.0178,0.0131,0.0104,0.0092,0.0066,0.0064,0.0033,0.0008,-0.0012,0.0011,-0.0038,-0.0043,-0.0005,-0.0007,-0.0008,-0.0009,0,0,0.0285,0.0296,0.0299,0.0311,0.03,0.0303,0.032,0.0315,0.0323,0.0286,0.0287,0.0254,0.0211,0.0195,0.0152,0.0124,0.0096,0.0077,0.0073,0.0044,0.0008,-0.0028,-0.0037,0.0068,0.0068,0.0068,-0.003,0,0.0326,0.0368,0.0361,0.04,0.0419,0.0393,0.0415,0.0404,0.0382,0.0372,0.032,0.0303,0.0257,0.0238,0.0205,0.0118,0.0088,0.0125,-0.0018,-0.0022,-0.0049,-0.0042,0.0067,-0.0033,-0.0035,-0.0036,-0.0036,0,0.0367,0.0391,0.0439,0.0465,0.0472,0.0491,0.0505,0.0515,0.0493,0.0472,0.0441,0.039,0.0345,0.0297,0.018,0.0204,0.012,0.0052,0.0046,-0.0015,-0.0066,-0.0063,-0.0046,-0.0045,-0.0044,-0.0044,-0.0043,0,0.0401,0.0442,0.0483,0.0492,0.0518,0.0538,0.055,0.0545,0.0556,0.053,0.052,0.0457,0.0411,0.0313,0.0169,0.0174,0.0024,0.001,-0.0099,-0.0103,-0.0076,-0.0077,-0.0067,-0.0067,-0.0067,-0.0067,-0.0066,0,0.0439,0.0471,0.0505,0.0527,0.0577,0.0581,0.0623,0.0621,0.0621,0.0632,0.0571,0.0548,0.0411,0.0306,0.0185,0.0021,0.0032,-0.0088,-0.0128,-0.0043,-0.0039,-0.008,-0.008,-0.007,-0.0069,-0.0069,-0.0068,0,0.0457,0.0482,0.053,0.0575,0.0592,0.0626,0.0668,0.0693,0.0688,0.0696,0.0689,0.0605,0.0466,0.0316,0.0134,0.0035,-0.0114,-0.0177,-0.0081,-0.0115,-0.0216,-0.0212,-0.0289,-0.0291,-0.0293,-0.0294,-0.0295,0,0.0466,0.0493,0.0559,0.059,0.061,0.0661,0.0696,0.0719,0.074,0.0724,0.0723,0.0608,0.0529,0.0254,0.009,-0.0144,-0.0179,-0.0252,-0.0219,-0.0206,-0.0238,-0.023,-0.0223,-0.0298,-0.0298,-0.0299,-0.0299,0,0.0472,0.0496,0.0533,0.06,0.0648,0.0708,0.0757,0.078,0.0801,0.0801,0.0745,0.0614,0.0448,0.0247,0.0051,-0.0112,-0.0198,-0.027,-0.0267,-0.0236,-0.0218,-0.0246,-0.0237,-0.0305,-0.0304,-0.0304,-0.0303,0,0.0462,0.0488,0.0535,0.0595,0.0661,0.0727,0.0763,0.0786,0.0809,0.0799,0.0772,0.0611,0.052,0.0259,0.0082,-0.0088,-0.012,-0.0159,-0.0162,-0.0158,-0.0094,-0.005,-0.0116,0,0,0,0,0,0.0442,0.047,0.0524,0.0592,0.0664,0.0712,0.0786,0.0817,0.0844,0.0813,0.0799,0.0649,0.0391,0.0278,0.0103,0.0041,-0.016,-0.0171,-0.0209,-0.0337,-0.0331,-0.0282,0,0,0,0,0,0,0.0424,0.0469,0.0508,0.0578,0.0631,0.0714,0.0772,0.0801,0.0785,0.0788,0.0654,0.06,0.0346,0.0488,0.0097,0.0044,-0.0004,-0.0288,-0.0292,-0.0341,-0.0335,-0.033,-0.0277,0,0,0,0,0]}]]